Location: Hope
(40.9110°N, 74.9680°W)
Time: 04:30:39
(UTC-05:00)

FORTE - Pass Details

Date: 12 December 2021
Orbit: 785 x 822 km, 70.0° (Epoch: 22 January)

Event Time Altitude Azimuth Distance (km) Brightness Sun altitude
Exits shadow 04:18:59 34° 39° (NE) 1,298 8.3 -32.4°
Drops below altitude 10° 04:22:00 10° 30° (NNE) 2,372 9.8 -31.8°
Sets 04:24:26 0° 28° (NNE) 3,311 10.6 -31.4°
